www.pogodaiklimat.ru

Погода и климат >> Архив погоды >> Испания >> Кадисская бухта


ПОГОДА в Кадисской бухте

  • Прогноз погоды в Кадисской бухте
  • Монитор погоды в Кадисской бухте

АРХИВ ПОГОДЫ в Кадисской бухте

Время (UTC), дата Ветер
(напр.,м/с)
 
Видим.   Явления Облачность Т
(С)
Тd
(С)
f
(%)
Тe
(С)
Тes
(С)
Комфортность P
(гПа)
Po
(гПа)
Тmin
(С)
Tmax
(С)
R
(мм)
R24
(мм)
S
(см)
10 11.07 ЮВ 4-6
{6}
н/о н/о +28.6 +16.5 48 +32 +32 душно 1012.6 1011.9
11 11.07 ЮВ 4-5
{6}
н/о н/о +29.9 +16.6 45 +33 +33 душно 1012.7 1012.0
12 11.07 ЮВ 4-5
{6}
н/о н/о +30.8 +17.1 44 +35 +35 очень
душно
1012.2 1011.5
13 11.07 ЮВ 5-6
{7}
н/о н/о +30.9 +16.5 42 +34 +34 душно 1011.9 1011.2
14 11.07 В 5-6
{7}
н/о н/о +31.7 +16.5 40 +35 +35 очень
душно
1011.7 1011.0
16 11.07 ЮВ 4-6
{6}
н/о н/о +31.7 +16.5 40 +35 +35 очень
душно
1011.5 1010.8
17 11.07 Ю 3-6
{6}
н/о н/о +25.6 +19.7 70 +31 +31 очень
душно
1011.4 1010.7
18 11.07 Ю 2-4
{5}
н/о н/о +24.8 +19.4 72 +30 +30 душно 1011.8 1011.1 +32.2
19 11.07 Ю 3-5
{5}
н/о н/о +23.3 +19.8 81 +30 +30 очень
душно
1012.4 1011.7
20 11.07 Ю 3-4
{5}
н/о н/о +23.0 +20.1 84 +30 +30 очень
душно
1013.2 1012.5
22 11.07 ЮВ 3-5
{6}
н/о н/о +23.2 +20.5 85 +31 +31 очень
душно
1015.0 1014.3
23 11.07 Ю 2-3
{4}
н/о н/о +22.4 +19.9 86 +29 +29 очень
душно
1015.3 1014.6
00 12.07 Ю 2-3
{3}
н/о н/о +22.2 +20.5 90 +29 +29 очень
душно
1015.1 1014.4
01 12.07 Ю 2-3
{4}
н/о н/о +21.7 +20.3 92 +27 +27 душно 1015.0 1014.3
02 12.07 Ю 1-2
{3}
н/о н/о +21.5 +20.3 93 +27 +27 душно 1015.0 1014.3
04 12.07 штиль 0-1
{1}
н/о н/о +21.3 +20.1 93 +26 +26 душно 1014.7 1014.0
05 12.07 В 1-2
{2}
н/о н/о +21.7 +20.2 91 +27 +27 душно 1015.0 1014.3
06 12.07 ЮВ 1 н/о н/о +21.6 +19.9 90 +27 +27 душно 1015.8 1015.1 +21.3 +24.7
07 12.07 В 1-2
{2}
н/о н/о +21.8 +20.1 90 +27 +27 душно 1015.6 1014.9
08 12.07 С 3-4
{4}
н/о н/о +21.6 +19.7 89 +27 +27 душно 1013.7 1013.0
10 12.07 С 1-1
{3}
н/о н/о +23.2 +19.1 78 +30 +30 очень
душно
1015.8 1015.1
11 12.07 З 1-3
{4}
н/о н/о +23.5 +19.2 77 +28 +28 душно 1016.1 1015.4
12 12.07 З 1-2
{3}
н/о н/о +24.0 +18.8 73 +29 +29 душно 1015.8 1015.1
13 12.07 З 1-2
{3}
н/о н/о +23.9 +19.0 74 +29 +29 душно 1015.3 1014.6
14 12.07 З 2-3
{4}
н/о н/о +24.1 +19.2 74 +29 +29 душно 1015.9 1015.2
16 12.07 З 2-3
{3}
н/о н/о +23.4 +19.1 77 +30 +30 очень
душно
1015.1 1014.4
17 12.07 З 2-3
{4}
н/о н/о +23.4 +19.6 79 +30 +30 очень
душно
1015.4 1014.7
18 12.07 ЮЗ 1-2
{2}
н/о н/о +23.0 +19.3 80 +29 +29 очень
душно
1015.4 1014.7 +25.3
19 12.07 ЮЗ 1-2
{2}
н/о н/о +22.6 +19.3 82 +29 +29 очень
душно
1016.2 1015.5
20 12.07 Ю 1-2
{2}
н/о н/о +22.2 +19.6 85 +28 +28 душно 1016.4 1015.7
22 12.07 ЮЗ 1-2
{3}
н/о н/о +21.8 +19.7 88 +27 +27 душно 1017.8 1017.1
23 12.07 ЮЗ 1-2
{2}
н/о н/о +21.7 +19.6 88 +27 +27 душно 1018.0 1017.3
00 13.07 ЮЗ 1-2
{2}
н/о н/о +21.7 +19.6 88 +27 +27 душно 1017.7 1017.0
01 13.07 ЮЗ 1-1
{2}
н/о н/о +21.6 +19.5 88 +27 +27 душно 1017.3 1016.6
10 13.07 Ю 1-2
{2}
н/о н/о +24.1 +18.1 69 +28 +28 душно 1017.5 1016.8
11 13.07 Ю 1-2
{2}
н/о н/о +25.0 +18.5 67 +30 +30 душно 1017.7 1017.0
12 13.07 ЮЗ 2-3
{3}
н/о н/о +25.0 +18.5 67 +30 +30 душно 1017.8 1017.1
13 13.07 ЮЗ 2-3
{3}
н/о н/о +24.8 +18.2 67 +29 +29 душно 1017.5 1016.8
14 13.07 З 2-3
{3}
н/о н/о +25.1 +18.1 65 +29 +29 душно 1017.0 1016.3
16 13.07 З 2-4
{4}
н/о н/о +25.1 +17.8 64 +29 +29 душно 1016.2 1015.5
17 13.07 З 2-3
{3}
н/о н/о +24.9 +17.9 65 +29 +29 душно 1015.7 1015.0
18 13.07 З 2-3
{4}
н/о н/о +24.6 +18.5 69 +29 +29 душно 1015.4 1014.7 +25.5
19 13.07 З 2-3
{3}
н/о н/о +23.4 +18.1 72 +29 +29 душно 1015.9 1015.2
20 13.07 З 2-3
{4}
н/о н/о +22.2 +18.4 79 +27 +27 душно 1016.3 1015.6
22 13.07 З 2-3
{4}
н/о н/о +21.8 +18.8 83 +27 +27 душно 1017.5 1016.8
23 13.07 ЮЗ 2-3
{3}
н/о н/о +21.6 +19.0 85 +26 +26 душно 1017.4 1016.7
00 14.07 ЮЗ 1-2
{2}
н/о н/о +21.6 +19.1 86 +27 +27 душно 1017.1 1016.4
01 14.07 ЮЗ 2-2
{2}
н/о н/о +21.4 +19.1 87 +26 +26 душно 1016.5 1015.8
02 14.07 ЮЗ 1-2
{2}
н/о н/о +21.3 +19.2 88 +26 +26 душно 1015.8 1015.1
04 14.07 З 1-2
{2}
н/о н/о +21.1 +19.2 89 +26 +26 душно 1015.2 1014.5
05 14.07 З 1-2
{2}
н/о н/о +21.1 +18.8 87 +25 +25 комфорт 1015.5 1014.8
06 14.07 З 1 н/о н/о +21.4 +19.0 86 +26 +26 душно 1015.8 1015.1 +21.0 +24.5
07 14.07 З 1-2
{2}
н/о н/о +22.1 +19.1 83 +28 +28 душно 1016.2 1015.5
08 14.07 ЮЗ 2-3
{3}
н/о н/о +22.5 +18.5 78 +28 +28 душно 1016.5 1015.8
10 14.07 З 2-3
{3}
н/о н/о +23.4 +17.4 69 +29 +29 душно 1016.9 1016.2
11 14.07 З 2-3
{4}
н/о н/о +23.8 +16.8 65 +27 +27 жарко 1017.0 1016.3
12 14.07 ЮЗ 3-4
{4}
н/о н/о +24.0 +16.8 64 +28 +28 душно 1016.9 1016.2
13 14.07 ЮЗ 3-4
{4}
н/о н/о +24.2 +17.2 65 +28 +28 душно 1016.3 1015.6
14 14.07 З 3-4
{4}
н/о н/о +23.9 +17.1 66 +28 +28 душно 1016.0 1015.3
16 14.07 ЮЗ 3-4
{4}
н/о н/о +23.7 +17.2 67 +28 +28 душно 1015.3 1014.6
17 14.07 З 2-4
{4}
н/о н/о +24.0 +17.9 69 +28 +28 душно 1015.0 1014.3
18 14.07 З 2-3
{4}
н/о н/о +23.2 +18.1 73 +29 +29 душно 1014.9 1014.2 +24.4
19 14.07 З 2-4
{4}
н/о н/о +22.3 +18.3 78 +27 +27 душно 1014.8 1014.1
20 14.07 З 2-3
{3}
н/о н/о +21.7 +18.7 83 +27 +27 душно 1014.9 1014.2
22 14.07 ЮЗ 1-2
{2}
н/о н/о +21.4 +18.6 84 +26 +26 душно 1015.4 1014.7
23 14.07 Ю 1-2
{2}
н/о н/о +21.6 +19.0 85 +26 +26 душно 1015.1 1014.4
00 15.07 Ю 2-3
{3}
н/о н/о +21.5 +19.3 87 +26 +26 душно 1015.0 1014.3
01 15.07 Ю 2-3
{3}
н/о н/о +21.3 +19.4 89 +26 +26 душно 1014.9 1014.1
02 15.07 Ю 2-3
{3}
н/о н/о +21.3 +19.4 89 +26 +26 душно 1014.4 1013.7
04 15.07 Ю 2-3
{3}
н/о н/о +21.4 +19.1 87 +26 +26 душно 1014.1 1013.4
05 15.07 Ю 2-3
{3}
н/о н/о +21.1 +18.8 87 +25 +25 комфорт 1014.2 1013.5
06 15.07 Ю 2 н/о н/о +21.2 +18.8 86 +26 +26 душно 1014.6 1013.9 +21.1 +23.3
07 15.07 Ю 2-2
{3}
н/о н/о +21.7 +18.7 83 +27 +27 душно 1015.0 1014.3
08 15.07 Ю 2-2
{3}
н/о н/о +21.7 +18.3 81 +26 +26 душно 1015.5 1014.7
10 15.07 Ю 2-3
{3}
н/о н/о +22.6 +18.2 76 +28 +28 душно 1015.7 1015.0
11 15.07 Ю 2-3
{3}
н/о н/о +23.2 +18.1 73 +29 +29 душно 1016.0 1015.3
12 15.07 Ю 2-3
{3}
н/о н/о +23.1 +17.1 69 +28 +28 душно 1015.9 1015.2
13 15.07 ЮЗ 2-3
{4}
н/о н/о +24.2 +17.2 65 +28 +28 душно 1015.4 1014.7
14 15.07 ЮЗ 2-3
{4}
н/о н/о +23.5 +16.6 65 +27 +27 душно 1015.0 1014.3
16 15.07 ЮЗ 2-3
{3}
н/о н/о +24.2 +17.2 65 +28 +28 душно 1014.2 1013.5
17 15.07 ЮЗ 2-3
{3}
н/о н/о +23.9 +16.9 65 +28 +28 душно 1013.8 1013.1
18 15.07 ЮЗ 2-3
{3}
н/о н/о +23.2 +17.0 68 +28 +28 душно 1013.6 1012.9 +24.6
19 15.07 ЮЗ 1-2
{3}
н/о н/о +23.1 +17.3 70 +28 +28 душно 1013.6 1012.9
20 15.07 З 1-1
{2}
н/о н/о +21.7 +17.7 78 +26 +26 душно 1013.7 1013.0
22 15.07 ЮЗ 1-1
{1}
н/о н/о +21.1 +18.5 85 +25 +25 комфорт 1014.1 1013.4
23 15.07 Ю 1-2
{2}
н/о н/о +21.1 +18.8 87 +25 +25 комфорт 1014.5 1013.8
00 16.07 Ю 1-2
{4}
н/о н/о +21.0 +18.8 87 +27 +27 душно 1014.3 1013.6
01 16.07 Ю 2-3
{3}
н/о н/о +20.9 +18.7 87 +26 +26 душно 1014.2 1013.5
02 16.07 ЮВ 2-3
{3}
н/о н/о +20.7 +18.6 88 +25 +25 комфорт 1013.9 1013.2
04 16.07 Ю 2-3
{3}
н/о н/о +20.5 +18.5 88 +25 +25 комфорт 1013.6 1012.9
05 16.07 Ю 2-3
{3}
н/о н/о +20.6 +18.7 89 +25 +25 комфорт 1013.7 1013.0
06 16.07 Ю 2 н/о н/о +20.6 +18.2 86 +25 +25 комфорт 1014.1 1013.4 +20.3 +23.8
07 16.07 Ю 2-3
{4}
н/о н/о +21.1 +17.9 82 +25 +25 комфорт 1014.5 1013.8
08 16.07 Ю 2-3
{3}
н/о н/о +21.3 +17.3 78 +25 +25 комфорт 1014.8 1014.1
10 16.07 Ю 2-3
{3}
н/о н/о +22.6 +16.8 70 +27 +27 душно 1015.2 1014.5
11 16.07 Ю 2-3
{3}
н/о н/о +23.5 +17.2 68 +27 +27 душно 1015.4 1014.7
12 16.07 Ю 2-3
{3}
н/о н/о +23.7 +16.7 65 +27 +27 жарко 1015.3 1014.6
14 16.07 ЮЗ 2-3
{4}
н/о н/о +23.8 +16.3 63 +27 +27 жарко 1014.8 1014.1
16 16.07 ЮЗ 2-3
{3}
н/о н/о +24.1 +16.9 64 +28 +28 душно 1014.1 1013.4
17 16.07 ЮЗ 2-3
{3}
н/о н/о +24.3 +17.1 64 +28 +28 душно 1013.8 1013.1
18 16.07 ЮЗ 2-3
{3}
н/о н/о +24.0 +17.5 67 +28 +28 душно 1013.8 1013.1 +24.6
19 16.07 ЮЗ 2-2
{3}
н/о н/о +23.3 +17.8 71 +29 +29 душно 1014.0 1013.3
20 16.07 ЮЗ 1-2
{2}
н/о н/о +21.8 +18.2 80 +27 +27 душно 1014.0 1013.3
22 16.07 ЮЗ 1-2
{2}
н/о н/о +21.7 +18.9 84 +27 +27 душно 1015.4 1014.7
23 16.07 Ю 2-3
{3}
н/о н/о +21.7 +18.5 82 +26 +26 душно 1015.6 1014.8
00 17.07 Ю 2-2
{3}
н/о н/о +21.4 +18.4 83 +26 +26 душно 1015.5 1014.8
01 17.07 Ю 2-4
{4}
н/о н/о +21.4 +18.6 84 +26 +26 душно 1015.3 1014.6
02 17.07 Ю 2-4
{4}
н/о н/о +21.4 +18.4 83 +26 +26 душно 1015.0 1014.3
04 17.07 Ю 2-3
{7}
н/о н/о +21.1 +18.1 83 +25 +25 комфорт 1014.5 1013.8
05 17.07 Ю 2-4
{4}
н/о н/о +20.9 +17.9 83 +26 +26 душно 1014.6 1013.9
06 17.07 Ю 3 н/о н/о +21.0 +17.6 81 +26 +26 душно 1014.9 1014.2 +20.7 +24.1
07 17.07 Ю 2-4
{4}
н/о н/о +20.7 +16.6 77 +25 +25 комфорт 1015.8 1015.1
08 17.07 Ю 2-4
{4}
н/о н/о +21.3 +15.8 71 +25 +25 комфорт 1016.2 1015.5
10 17.07 Ю 2-4
{4}
н/о н/о +22.4 +16.0 67 +27 +27 душно 1017.0 1016.2
11 17.07 Ю 2-3
{4}
н/о н/о +22.5 +15.6 65 +26 +26 жарко 1017.2 1016.4
12 17.07 Ю 2-3
{4}
н/о н/о +23.3 +15.6 62 +28 +28 душно 1016.9 1016.2
13 17.07 Ю 2-3
{3}
н/о н/о +24.0 +16.6 63 +27 +27 жарко 1016.6 1015.9
14 17.07 Ю 2-4
{8}
н/о н/о +23.6 +16.6 65 +27 +27 жарко 1016.3 1015.6
16 17.07 ЮЗ 1-2
{3}
н/о н/о +24.3 +16.3 61 +28 +28 душно 1015.5 1014.8
17 17.07 З 2-4
{4}
н/о н/о +22.9 +16.0 65 +27 +27 душно 1015.3 1014.6
18 17.07 З 2-3
{3}
н/о н/о +23.1 +16.6 67 +28 +28 душно 1015.2 1014.5 +25.3
19 17.07 З 2-3
{3}
н/о н/о +22.0 +16.7 72 +26 +26 душно 1015.2 1014.5
20 17.07 З 2-3
{4}
н/о н/о +21.2 +17.0 77 +25 +25 комфорт 1015.5 1014.8
22 17.07 ЮЗ 1-2
{2}
н/о н/о +21.0 +17.8 82 +26 +26 душно 1016.5 1015.8
23 17.07 Ю 2-2
{2}
н/о н/о +21.0 +18.2 84 +26 +26 душно 1016.6 1015.9
00 18.07 Ю 2-3
{3}
н/о н/о +21.0 +18.2 84 +26 +26 душно 1016.2 1015.5
01 18.07 Ю 2-3
{3}
н/о н/о +20.9 +18.1 84 +26 +26 душно 1015.7 1015.0
02 18.07 Ю 3-4
{4}
н/о н/о +21.0 +18.2 84 +26 +26 душно 1015.3 1014.6
07 18.07 Ю 2-3
{3}
н/о н/о +21.2 +18.4 84 +25 +25 комфорт 1015.5 1014.8
08 18.07 Ю 1-2
{2}
н/о н/о +21.8 +18.2 80 +27 +27 душно 1015.9 1015.2

 

Местоположение метеостанции Кадисская бухта (Испания): широта 36.50 долгота -6.26 высота над уровнем моря 9 м.

В архиве по умолчанию представлена погода в Кадисской бухте за последнюю неделю. Архивные данные за месяц целиком и за предыдущие месяцы, начиная с января 2011 года, Вы можете получить, выбрав интересующий диапазон дат из раскрывающегося списка и нажав кнопку "Ввод!".


*Определитесь, кто Вы:
робот инопланетянин человек

Внимание! Время в таблицах - всемирное. Для получения местного времени необходимо прибавить поправку, которая равна 1 ч.

Смотрите также архив погоды в соседних городах и на ближайших метеорологических станциях:

Погода в Сан-Фернандо (Испания) (6 км)
Погода в Херес-де-ла-Фронтере (Испания) (33 км)
Погода в Вехер-де-ла-Фронтера (Испания) (39 км)
Погода в Эль-Ареносильо (Испания) (79 км)
Погода в Тарифе (Испания) (80 км)
Погода в Грасалеме (Испания) (85 км)
Погода в Танжер порту (Марокко) (90 км)
Погода Гибралтаре (Гибралтар) (90 км)
Погода в Танжере (Марокко) (92 км)
Погода в Морон-де-ла-Фронтере (Испания) (92 км)

Пояснения к столбцам:

Ветер - указаны скорость ветра в м/с - средняя за 10 мин, порывы в срок и между сроками (в фигурных скобках) и направление, откуда дует ветер: С - северный, СВ - северо-восточный, В - восточный, ЮВ - юго-восточный, Ю - южный, ЮЗ - юго-западный, З - западный, СЗ - северо-западный.
Видимость - горизонтальная дальность видимости в метрах или километрах. При видимости от 1 до 10 км при отсутствии осадков обычно наблюдается дымка, при ухудшении видимости до 1 км и менее - туман. В сухую погоду видимость может ухудшаться дымом, пылью или мглою.
Явления - указаны атмосферные явления, наблюдавшиеся в срок или в последний час перед сроком; фигурными скобками обозначены явления, наблюдавшиеся между сроками (за 1-3 часа до срока); квадратными скобками обозначены град или гололедные отложения с указанием их диаметра в мм.
Облачность - указаны через наклонную черту общая и нижняя облачность в баллах и высота нижней границы облаков в метрах; квадратными скобками обозначены формы облаков: Ci - перистые, Cs - перисто-слоистые, Cc - перисто-кучевые, Ac - высококучевые, As - высокослоистые, Sc - слоисто-кучевые, Ns - слоисто-дождевые, Cu - кучевые, Cb - кучево-дождевые. Подробнее классификацию облаков см. в Атласе облаков (PDF).
T - Температура воздуха - температура, измеренная на высоте 2 м над землей.
Td - Температура точки росы - температура, при понижении до которой содержащийся в воздухе водяной пар достигнет насыщения.
f - Относительная влажность воздуха - влажноcть воздуха, измеренная на высоте 2 м над землей.
Te - Эффективная температура - температура, которую ощущает одетый по сезону человек в тени. Характеристика душности погоды. При расчете учитывается влияние влажности воздуха и скорости ветра на теплоощущения человека.
Tes - Эффективная температура на солнце - температура, которую ощущает человек, с поправкой на солнечный нагрев. Характеристика знойности погоды. Зависит от высоты солнца над горизонтом, облачности и скорости ветра. Ночью, в пасмурную погоду, а также при ветре 12 м/с и более поправка равна нулю.
P - Атмосферное давление - приведенное к уровню моря атмосферное давление.
Po - Атмосферное давление - измеренное на уровне метеостанции атмосферное давление.
Tmin - Минимальная температура - минимум температуры воздуха на высоте 2 м над землей.
Tmax - Максимальная температура - максимум температуры воздуха на высоте 2 м над землей.
R - Количество осадков - Количество выпавших осадков за период времени, мм. При наведении курсора мыши на число - период времени, за который выпало указанное количество осадков.
R24 - Количество осадков - Количество выпавших осадков за 24 часа, мм.
S - Снежный покров - Высота снежного покрова, см. При наведении курсора мыши на число - состояние снежного покрова и степень покрытия местности в баллах.